Date String (YYYY-MM-DD hh:mm:ss) UTC,Instrument flags,Ambient pressure (hPa),Sample flow (lpm),Bypass flow (lpm),Sample temperature (°C),Ambient temperature (°C),ASC tube jacket temperature (°C),LED temperature (°C),Box temperature (°C),Sample RH (%),Span deviation,Mass concentration (μg/m³),Mass concentration (μg/m³),Mass concentration (μg/m³)
DateTimeUTC,F1_M11,P_M11,Q1_M11,Q2_M11,T1_M11,T2_M11,T3_M11,T4_M11,T5_M11,U1_M11,ZSPAN_M11,X2_M11,X0_M11,X1_M11
2023-01-01 16:00:00,,0819.0,5.04,0.00,22.4,21.0,00.0,31.2,24.1,14.8,0001.4,0007.32,0012.70,0006.71
2023-01-01 16:01:00,,0819.0,5.02,0.00,22.4,21.0,00.0,31.2,24.1,14.9,0000.8,0007.40,0012.66,0006.76
2023-01-01 16:02:00,,0819.0,4.97,0.00,22.4,21.0,00.0,31.2,24.1,14.9,0000.4,0007.51,0012.90,0006.83
2023-01-01 16:03:00,,0819.0,4.99,0.00,22.4,21.0,00.0,31.2,24.2,14.9,0000.4,0007.59,0013.64,0006.90
2023-01-01 16:04:00,,0819.1,5.04,0.00,22.4,21.7,00.0,31.2,24.4,14.9,0000.7,0007.66,0013.84,0006.96
2023-01-01 16:05:00,,0819.1,4.99,0.00,22.5,22.6,00.0,31.2,24.6,14.8,0000.4,0007.70,0013.71,0006.99
2023-01-01 16:06:00,,0819.1,4.96,0.00,22.7,22.9,00.0,31.2,24.8,14.7,0001.1,0007.71,0013.36,0007.00
2023-01-01 16:07:00,,0819.1,4.99,0.00,22.7,22.7,00.0,31.3,24.8,14.7,0000.2,0007.75,0013.83,0007.01
2023-01-01 16:08:00,,0819.0,5.00,0.00,22.7,22.4,00.0,31.4,24.7,14.6,-000.4,0007.70,0013.84,0006.98
2023-01-01 16:09:00,,0819.0,5.00,0.00,22.7,22.2,00.0,31.4,24.7,14.6,-000.8,0007.67,0013.81,0006.93
2023-01-01 16:10:00,,0819.0,5.00,0.00,22.7,22.0,00.0,31.4,24.6,14.6,-000.6,0007.64,0013.90,0006.86
2023-01-01 16:11:00,,0819.1,4.98,0.00,22.7,21.9,00.0,31.4,24.6,14.6,-000.1,0007.58,0014.38,0006.78
2023-01-01 16:12:00,,0819.1,4.97,0.00,22.7,21.8,00.0,31.4,24.6,14.6,-000.1,0007.51,0014.30,0006.71
2023-01-01 16:13:00,,0819.1,5.07,0.00,22.7,21.7,00.0,31.4,24.5,14.6,0000.6,0007.46,0014.23,0006.66
2023-01-01 16:14:00,,0819.1,5.01,0.00,22.7,21.6,00.0,31.5,24.5,14.6,0000.1,0007.44,0013.53,0006.63
2023-01-01 16:15:00,,0819.1,4.90,0.00,22.7,21.6,00.0,31.5,24.5,14.5,-000.8,0007.39,0013.74,0006.58
2023-01-01 16:16:00,,0819.2,4.93,0.00,22.7,21.5,00.0,31.5,24.5,14.5,-000.9,0007.38,0013.85,0006.57
2023-01-01 16:17:00,,0819.1,4.98,0.00,22.7,21.5,00.0,31.5,24.4,14.4,-001.0,0007.32,0013.44,0006.55
2023-01-01 16:18:00,,0819.2,5.08,0.00,22.6,21.4,00.0,31.5,24.4,14.4,-000.9,0007.26,0013.33,0006.49
2023-01-01 16:19:00,,0819.1,5.02,0.00,22.6,21.4,00.0,31.5,24.4,14.5,-000.5,0007.15,0013.43,0006.44
2023-01-01 16:20:00,,0819.1,4.94,0.00,22.6,21.4,00.0,31.5,24.3,14.5,0000.4,0007.09,0013.33,0006.38
2023-01-01 16:21:00,,0819.2,4.97,0.00,22.6,21.3,00.0,31.5,24.2,14.6,0000.5,0007.01,0013.00,0006.33
2023-01-01 16:22:00,,0819.2,4.97,0.00,22.6,21.3,00.0,31.5,24.3,14.6,0000.4,0006.94,0012.71,0006.29
2023-01-01 16:23:00,,0819.1,5.03,0.00,22.6,21.3,00.0,31.4,24.3,14.6,-000.1,0006.90,0012.17,0006.26
2023-01-01 16:24:00,,0819.1,5.01,0.00,22.6,21.3,00.0,31.4,24.3,14.5,0000.1,0006.83,0011.97,0006.22
2023-01-01 16:25:00,,0819.1,5.06,0.00,22.5,21.2,00.0,31.4,24.2,14.5,-000.7,0006.76,0012.28,0006.18
2023-01-01 16:26:00,,0819.2,4.96,0.00,22.5,21.2,00.0,31.4,24.2,14.5,-000.7,0006.67,0012.22,0006.11
2023-01-01 16:27:00,,0819.1,4.98,0.00,22.5,21.2,00.0,31.4,24.2,14.4,-000.5,0006.56,0012.08,0006.04
2023-01-01 16:28:00,,0819.1,4.99,0.00,22.5,21.1,00.0,31.4,24.2,14.4,-000.2,0006.46,0011.78,0005.96
2023-01-01 16:29:00,,0819.1,5.09,0.00,22.5,21.1,00.0,31.4,24.1,14.3,0000.1,0006.39,0012.03,0005.90
2023-01-01 16:30:00,,0819.1,4.97,0.00,22.5,21.1,00.0,31.4,24.2,14.2,-000.4,0006.30,0011.50,0005.81
2023-01-01 16:31:00,,0819.1,4.99,0.00,22.5,21.1,00.0,31.4,24.1,14.2,-000.1,0006.19,0010.95,0005.73
2023-01-01 16:32:00,,0819.1,5.05,0.00,22.5,21.1,00.0,31.4,24.1,14.2,0000.8,0006.08,0010.72,0005.62
2023-01-01 16:33:00,,0819.1,5.01,0.00,22.5,21.1,00.0,31.4,24.1,14.2,0001.0,0005.94,0010.48,0005.50
2023-01-01 16:34:00,,0819.1,5.01,0.00,22.4,21.1,00.0,31.4,24.1,14.1,0001.9,0005.76,0010.18,0005.37
2023-01-01 16:35:00,,0819.2,4.98,0.00,22.4,21.1,00.0,31.4,24.1,14.1,0002.0,0005.60,0010.16,0005.23
2023-01-01 16:36:00,,0819.2,4.97,0.00,22.4,21.1,00.0,31.4,24.1,14.1,0002.4,0005.43,0009.46,0005.09
2023-01-01 16:37:00,,0819.3,5.05,0.00,22.4,21.1,00.0,31.4,24.1,14.1,0003.0,0005.29,0009.15,0004.97
2023-01-01 16:38:00,,0819.2,5.00,0.00,22.4,21.1,00.0,31.3,24.2,14.1,0003.2,0005.19,0009.02,0004.87
2023-01-01 16:39:00,,0819.2,4.97,0.00,22.4,21.1,00.0,31.3,24.1,14.0,0002.8,0005.10,0008.83,0004.77
2023-01-01 16:40:00,,0819.1,4.97,0.00,22.4,21.1,00.0,31.3,24.1,14.0,0002.4,0005.00,0009.12,0004.66
2023-01-01 16:41:00,,0819.2,4.98,0.00,22.4,21.1,00.0,31.3,24.2,14.0,0002.5,0004.88,0009.52,0004.56
2023-01-01 16:42:00,,0819.2,4.99,0.00,22.4,21.1,00.0,31.3,24.2,14.0,0000.0,0004.73,0009.46,0004.42
2023-01-01 16:43:00,,0819.3,5.03,0.00,22.4,21.1,00.0,31.3,24.1,14.0,0000.0,0004.59,0009.32,0004.30
2023-01-01 16:44:00,,0819.3,5.01,0.00,22.4,21.1,00.0,31.3,24.2,14.0,0000.0,0004.44,0009.14,0004.17
2023-01-01 16:45:00,,0819.3,5.00,0.00,22.4,21.1,00.0,31.3,24.2,14.0,0000.0,0004.32,0008.82,0004.06
2023-01-01 16:46:00,,0819.3,4.98,0.00,22.4,21.1,00.0,31.3,24.2,14.0,0000.0,0004.21,0008.48,0003.97
2023-01-01 16:47:00,,0819.3,5.06,0.00,22.4,21.1,00.0,31.3,24.2,14.0,0000.0,0004.13,0008.39,0003.89
2023-01-01 16:48:00,,0819.3,5.00,0.00,22.4,21.1,00.0,31.3,24.2,14.1,0000.0,0004.02,0008.27,0003.79
2023-01-01 16:49:00,,0819.2,4.98,0.00,22.4,21.1,00.0,31.3,24.2,14.0,0000.0,0003.90,0008.02,0003.67
2023-01-01 16:50:00,,0819.2,4.97,0.00,22.4,21.1,00.0,31.3,24.1,14.0,0000.0,0003.77,0007.85,0003.56
2023-01-01 16:51:00,,0819.2,5.01,0.00,22.4,21.1,00.0,31.3,24.1,14.1,0000.0,0003.65,0006.64,0003.47
2023-01-01 16:52:00,,0819.3,5.06,0.00,22.4,21.1,00.0,31.3,24.1,14.0,0000.0,0003.57,0005.62,0003.41
2023-01-01 16:53:00,,0819.3,4.99,0.00,22.4,21.1,00.0,31.3,24.2,14.0,0000.0,0003.52,0004.85,0003.37
2023-01-01 16:54:00,,0819.3,4.99,0.00,22.4,21.1,00.0,31.3,24.2,14.0,0000.0,0003.47,0005.58,0003.32
2023-01-01 16:55:00,,0819.2,5.07,0.00,22.4,21.1,00.0,31.3,24.2,14.1,0000.0,0003.46,0006.68,0003.29
2023-01-01 16:56:00,,0819.3,5.03,0.00,22.4,21.1,00.0,31.3,24.2,14.0,0000.0,0003.45,0007.80,0003.27
2023-01-01 16:57:00,,0819.3,4.98,0.00,22.4,21.1,00.0,31.3,24.2,14.1,0000.0,0003.42,0007.88,0003.25
2023-01-01 16:58:00,,0819.3,5.02,0.00,22.4,21.1,00.0,31.3,24.2,14.2,0000.0,0003.41,0008.03,0003.23
2023-01-01 16:59:00,,0819.3,5.05,0.00,22.4,21.1,00.0,31.3,24.1,14.3,0000.0,0003.44,0008.24,0003.25
